,,Stat6,,Stat2,,Stat8,,Stat9,,Stat10,,Wind1,,Wind1,
time,status,PA1M_AVG,status,PR1M_SUM,status,RH1M_AVG,status,SR1M_AVG,status,TA1M_AVG,status,W1dAve1m,status,W1sAve1m,
2004-08-08, 00:00:00,VALID,919.343,VALID,0,VALID,97.5181,VALID,0.0509425,VALID,20.263,VALID,12,VALID,0.248047,
2004-08-08, 00:01:00,VALID,919.343,VALID,0,VALID,97.5346,VALID,0.0509425,VALID,20.2563,VALID,11,VALID,0.224382,
2004-08-08, 00:02:01,VALID,919.319,VALID,0,VALID,97.5461,VALID,0.0339617,VALID,20.2464,VALID,13,VALID,0.273983,
2004-08-08, 00:03:00,VALID,919.303,VALID,0,VALID,97.6134,VALID,0,VALID,20.2499,VALID,11,VALID,0.800037,
2004-08-08, 00:04:00,VALID,919.294,VALID,0,VALID,97.6414,VALID,0.0509425,VALID,20.2501,VALID,13,VALID,0.52567,
2004-08-08, 00:05:01,VALID,919.295,VALID,0,VALID,97.7037,VALID,0.0849042,VALID,20.2563,VALID,13,VALID,0.662109,
2004-08-08, 00:06:00,VALID,919.288,VALID,0,VALID,97.7215,VALID,0.0509425,VALID,20.2561,VALID,12,VALID,0.752344,
2004-08-08, 00:07:01,VALID,919.297,VALID,0,VALID,97.7927,VALID,0.0339617,VALID,20.2663,VALID,18,VALID,0.651042,
2004-08-08, 00:08:00,VALID,919.293,VALID,0,VALID,97.7902,VALID,0.101885,VALID,20.259,VALID,14,VALID,0.789244,
2004-08-08, 00:09:00,VALID,919.289,VALID,0,VALID,97.7978,VALID,0.0509425,VALID,20.2663,VALID,13,VALID,0.709666,
2004-08-08, 00:10:01,VALID,919.289,VALID,0,VALID,97.8436,VALID,0.0509425,VALID,20.266,VALID,12,VALID,0.536258,
2004-08-08, 00:11:00,VALID,919.285,VALID,0,VALID,97.8551,VALID,0.0679233,VALID,20.2665,VALID,13,VALID,0.692708,
2004-08-08, 00:12:00,VALID,919.289,VALID,0,VALID,97.8627,VALID,0.0509425,VALID,20.2563,VALID,13,VALID,0.455793,
2004-08-08, 00:13:01,VALID,919.303,VALID,0,VALID,97.7482,VALID,0.0509425,VALID,20.2437,VALID,355,VALID,0.636265,
2004-08-08, 00:14:00,VALID,919.314,VALID,0,VALID,97.7343,VALID,0.0679233,VALID,20.2081,VALID,341,VALID,0.374092,
2004-08-08, 00:15:01,VALID,919.316,VALID,0,VALID,97.836,VALID,0.101885,VALID,20.1759,VALID,341,VALID,0.228198,
2004-08-08, 00:16:00,VALID,919.31,VALID,0,VALID,97.8907,VALID,0.0339617,VALID,20.1562,VALID,341,VALID,0,
2004-08-08, 00:17:01,VALID,919.299,VALID,0,VALID,97.8919,VALID,0.0339617,VALID,20.1468,VALID,341,VALID,0,
2004-08-08, 00:18:00,VALID,919.283,VALID,0,VALID,97.8487,VALID,0.0339617,VALID,20.1339,VALID,341,VALID,0.169513,
2004-08-08, 00:19:01,VALID,919.262,VALID,0,VALID,97.7292,VALID,0.0169808,VALID,20.1048,VALID,341,VALID,0.121271,
2004-08-08, 00:20:00,VALID,919.255,VALID,0,VALID,97.4151,VALID,0.0679233,VALID,20.0564,VALID,346,VALID,0.375586,
2004-08-08, 00:21:01,VALID,919.242,VALID,0,VALID,97.3935,VALID,0.0169808,VALID,19.9916,VALID,346,VALID,0.48383,
2004-08-08, 00:22:00,VALID,919.227,VALID,0,VALID,97.6262,VALID,0.0509425,VALID,19.956,VALID,346,VALID,0.646621,
2004-08-08, 00:23:00,VALID,919.224,VALID,0,VALID,97.7813,VALID,0.0339617,VALID,19.9342,VALID,346,VALID,0.678125,
2004-08-08, 00:24:00,VALID,919.221,VALID,0,VALID,97.9835,VALID,0,VALID,19.9186,VALID,351,VALID,0.771723,
2004-08-08, 00:25:00,VALID,919.212,VALID,0,VALID,98.0928,VALID,-0.0509425,VALID,19.8997,VALID,10,VALID,0.910429,
2004-08-08, 00:26:01,VALID,919.219,VALID,0,VALID,98.3459,VALID,-0.0339617,VALID,19.8771,VALID,352,VALID,0.838956,
2004-08-08, 00:27:00,VALID,919.216,VALID,0,VALID,98.6066,VALID,-0.0849042,VALID,19.8706,VALID,353,VALID,0.686955,
2004-08-08, 00:28:01,VALID,919.215,VALID,0,VALID,98.7325,VALID,-0.0849042,VALID,19.8639,VALID,356,VALID,1.01163,
2004-08-08, 00:29:00,VALID,919.215,VALID,0,VALID,98.7147,VALID,-0.0509425,VALID,19.8421,VALID,15,VALID,1.10156,
2004-08-08, 00:30:01,VALID,919.211,VALID,0,VALID,98.8571,VALID,-0.0849042,VALID,19.8259,VALID,17,VALID,1.03507,
2004-08-08, 00:31:01,VALID,919.213,VALID,0,VALID,98.9601,VALID,-0.0679233,VALID,19.8162,VALID,11,VALID,0.988948,
2004-08-08, 00:32:01,VALID,919.224,VALID,0,VALID,98.9575,VALID,-0.0849042,VALID,19.8195,VALID,7,VALID,0.763139,
2004-08-08, 00:33:01,VALID,919.224,VALID,0,VALID,98.9029,VALID,-0.0849042,VALID,19.8003,VALID,357,VALID,0.623402,
2004-08-08, 00:34:01,VALID,919.211,VALID,0,VALID,98.9601,VALID,-0.0509425,VALID,19.8003,VALID,340,VALID,0.590298,
2004-08-08, 00:35:01,VALID,919.207,VALID,0,VALID,99.0313,VALID,-0.0509425,VALID,19.8038,VALID,344,VALID,0.654154,
2004-08-08, 00:36:01,VALID,919.198,VALID,0,VALID,99.1038,VALID,0,VALID,19.7931,VALID,344,VALID,0.57793,
2004-08-08, 00:37:01,VALID,919.195,VALID,0,VALID,99.222,VALID,-0.0509425,VALID,19.8033,VALID,338,VALID,0.366493,
2004-08-08, 00:38:00,VALID,919.202,VALID,0,VALID,99.3021,VALID,-0.0169808,VALID,19.8152,VALID,335,VALID,0.327415,
2004-08-08, 00:39:01,VALID,919.189,VALID,0,VALID,99.3123,VALID,-0.0339617,VALID,19.8351,VALID,332,VALID,0.234003,
2004-08-08, 00:40:00,VALID,919.199,VALID,0,VALID,99.2869,VALID,-0.0339617,VALID,19.8388,VALID,334,VALID,0.990282,
2004-08-08, 00:41:00,VALID,919.197,VALID,0,VALID,99.1127,VALID,-0.0509425,VALID,19.8257,VALID,356,VALID,0.807566,
2004-08-08, 00:42:01,VALID,919.183,VALID,0,VALID,99.1394,VALID,-0.0339617,VALID,19.8329,VALID,356,VALID,0.582292,
2004-08-08, 00:43:01,VALID,919.177,VALID,0,VALID,99.1508,VALID,-0.0849042,VALID,19.8324,VALID,353,VALID,0.810826,
2004-08-08, 00:44:01,VALID,919.17,VALID,0,VALID,99.1508,VALID,-0.101885,VALID,19.8227,VALID,2,VALID,0.977134,
2004-08-08, 00:45:01,VALID,919.169,VALID,0,VALID,99.0618,VALID,-0.0849042,VALID,19.813,VALID,5,VALID,0.829799,
2004-08-08, 00:46:01,VALID,919.17,VALID,0,VALID,99.0898,VALID,-0.0679233,VALID,19.8259,VALID,336,VALID,0.954215,
2004-08-08, 00:47:01,VALID,919.168,VALID,0,VALID,99.0974,VALID,-0.101885,VALID,19.8324,VALID,351,VALID,0.315044,
2004-08-08, 00:48:01,VALID,919.158,VALID,0,VALID,99.1826,VALID,-0.0849042,VALID,19.8319,VALID,351,VALID,0.0200076,
2004-08-08, 00:49:01,VALID,919.147,VALID,0,VALID,99.1623,VALID,-0.0679233,VALID,19.8587,VALID,351,VALID,0,
2004-08-08, 00:50:01,VALID,919.13,VALID,0,VALID,98.9385,VALID,-0.0849042,VALID,19.8326,VALID,351,VALID,0.0297965,
2004-08-08, 00:51:00,VALID,919.104,VALID,0,VALID,98.8863,VALID,-0.0339617,VALID,19.8093,VALID,319,VALID,0.540516,
2004-08-08, 00:52:01,VALID,919.095,VALID,0,VALID,98.9448,VALID,-0.0849042,VALID,19.8326,VALID,320,VALID,0.652148,
2004-08-08, 00:53:01,VALID,919.067,VALID,0,VALID,98.8329,VALID,-0.0339617,VALID,19.8354,VALID,337,VALID,0.469308,
2004-08-08, 00:54:01,VALID,919.071,VALID,0,VALID,98.7782,VALID,0,VALID,19.8381,VALID,318,VALID,0.595117,
2004-08-08, 00:55:00,VALID,919.07,VALID,0,VALID,98.6867,VALID,0,VALID,19.8381,VALID,317,VALID,0.0489583,
2004-08-08, 00:56:01,VALID,919.081,VALID,0,VALID,98.6028,VALID,0,VALID,19.8284,VALID,317,VALID,0.300495,
2004-08-08, 00:57:01,VALID,919.095,VALID,0,VALID,98.5341,VALID,0,VALID,19.8023,VALID,268,VALID,0.604539,
2004-08-08, 00:58:01,VALID,919.094,VALID,0,VALID,98.7147,VALID,0,VALID,19.7862,VALID,250,VALID,0.460547,
2004-08-08, 00:59:01,VALID,919.1,VALID,0,VALID,98.8049,VALID,0,VALID,19.7601,VALID,250,VALID,0.188388,
2004-08-08, 01:00:01,VALID,919.075,VALID,0,VALID,98.8863,VALID,0,VALID,19.7444,VALID,250,VALID,0,
2004-08-08, 01:01:01,VALID,919.046,VALID,0,VALID,98.852,VALID,0.0169808,VALID,19.7211,VALID,250,VALID,0,
2004-08-08, 01:02:01,VALID,919.017,VALID,0,VALID,98.7579,VALID,0.0169808,VALID,19.6824,VALID,250,VALID,0.00195313,
2004-08-08, 01:03:01,VALID,919,VALID,0,VALID,98.9512,VALID,0.0339617,VALID,19.7025,VALID,250,VALID,0.242578,
2004-08-08, 01:04:01,VALID,918.987,VALID,0,VALID,99.0974,VALID,0,VALID,19.6992,VALID,250,VALID,0.327943,
2004-08-08, 01:05:01,VALID,918.984,VALID,0,VALID,99.2055,VALID,0,VALID,19.7258,VALID,250,VALID,0.234756,
2004-08-08, 01:06:01,VALID,919.003,VALID,0,VALID,99.133,VALID,-0.0169808,VALID,19.7087,VALID,249,VALID,0.207849,
2004-08-08, 01:07:01,VALID,919.029,VALID,0,VALID,98.8838,VALID,0,VALID,19.6769,VALID,252,VALID,0.222266,
2004-08-08, 01:08:01,VALID,919.025,VALID,0,VALID,98.8291,VALID,0,VALID,19.6665,VALID,252,VALID,0,
2004-08-08, 01:09:01,VALID,919.047,VALID,0,VALID,98.7986,VALID,0,VALID,19.6568,VALID,252,VALID,0.0494186,
2004-08-08, 01:10:01,VALID,919.066,VALID,0,VALID,98.5875,VALID,0,VALID,19.6379,VALID,252,VALID,0.0093006,
2004-08-08, 01:11:01,VALID,919.073,VALID,0,VALID,98.2582,VALID,0,VALID,19.5666,VALID,252,VALID,0,
2004-08-08, 01:12:01,VALID,919.087,VALID,0,VALID,98.4247,VALID,0,VALID,19.5666,VALID,252,VALID,0,
2004-08-08, 01:13:01,VALID,919.096,VALID,0,VALID,98.5201,VALID,0,VALID,19.5803,VALID,252,VALID,0.0648082,
2004-08-08, 01:14:01,VALID,919.105,VALID,0,VALID,98.4603,VALID,0.0169808,VALID,19.5634,VALID,252,VALID,0,
2004-08-08, 01:15:01,VALID,919.094,VALID,0,VALID,98.5392,VALID,-0.0169808,VALID,19.5738,VALID,252,VALID,0.00114329,
2004-08-08, 01:16:01,VALID,919.094,VALID,0,VALID,98.6422,VALID,0,VALID,19.59,VALID,252,VALID,0.0727307,
2004-08-08, 01:17:00,VALID,919.105,VALID,0,VALID,98.557,VALID,0,VALID,19.5607,VALID,252,VALID,0,
2004-08-08, 01:18:00,VALID,919.115,VALID,0,VALID,98.7287,VALID,-0.0169808,VALID,19.5507,VALID,252,VALID,0.00345203,
2004-08-08, 01:19:00,VALID,919.135,VALID,0,VALID,98.7592,VALID,-0.0169808,VALID,19.5478,VALID,252,VALID,0.0897436,
2004-08-08, 01:20:00,VALID,919.141,VALID,0,VALID,98.8126,VALID,0.0169808,VALID,19.5579,VALID,252,VALID,0,
2004-08-08, 01:21:00,VALID,919.155,VALID,0,VALID,98.7503,VALID,0,VALID,19.5676,VALID,252,VALID,0,
2004-08-08, 01:22:00,VALID,919.146,VALID,0,VALID,98.5163,VALID,-0.0169808,VALID,19.5319,VALID,252,VALID,0,
2004-08-08, 01:23:00,VALID,919.149,VALID,0,VALID,98.4502,VALID,-0.0169808,VALID,19.4963,VALID,252,VALID,0.107851,
2004-08-08, 01:24:00,VALID,919.161,VALID,0,VALID,98.763,VALID,0,VALID,19.5155,VALID,252,VALID,0.0188301,
2004-08-08, 01:25:00,VALID,919.165,VALID,0,VALID,98.8965,VALID,0,VALID,19.5284,VALID,252,VALID,0,
2004-08-08, 01:26:00,VALID,919.164,VALID,0,VALID,98.9207,VALID,0.0169808,VALID,19.5055,VALID,252,VALID,0,
2004-08-08, 01:27:00,VALID,919.155,VALID,0,VALID,98.9741,VALID,0,VALID,19.5125,VALID,252,VALID,0.078125,
2004-08-08, 01:28:00,VALID,919.126,VALID,0,VALID,98.9906,VALID,0,VALID,19.4963,VALID,252,VALID,0,
2004-08-08, 01:29:00,VALID,919.114,VALID,0,VALID,98.9601,VALID,0.0339617,VALID,19.47,VALID,252,VALID,0,
2004-08-08, 01:30:00,VALID,919.102,VALID,0,VALID,98.9143,VALID,0,VALID,19.4477,VALID,252,VALID,0,
2004-08-08, 01:31:00,VALID,919.115,VALID,0,VALID,98.8736,VALID,0.0169808,VALID,19.4256,VALID,252,VALID,0,
2004-08-08, 01:32:00,VALID,919.117,VALID,0,VALID,98.8571,VALID,0,VALID,19.3801,VALID,252,VALID,0,
2004-08-08, 01:33:00,VALID,919.124,VALID,0,VALID,98.9639,VALID,0,VALID,19.3575,VALID,252,VALID,0,
2004-08-08, 01:34:00,VALID,919.109,VALID,0,VALID,99.0491,VALID,0.0169808,VALID,19.3607,VALID,252,VALID,0.0758929,
2004-08-08, 01:35:00,VALID,919.096,VALID,0,VALID,99.0898,VALID,0.0169808,VALID,19.3478,VALID,252,VALID,0.0446429,
2004-08-08, 01:36:00,VALID,919.083,VALID,0,VALID,99.1216,VALID,0,VALID,19.3478,VALID,252,VALID,0,
2004-08-08, 01:37:00,VALID,919.07,VALID,0,VALID,98.9881,VALID,0,VALID,19.3255,VALID,252,VALID,0,
2004-08-08, 01:38:00,VALID,919.053,VALID,0,VALID,98.571,VALID,0,VALID,19.2477,VALID,252,VALID,0,
2004-08-08, 01:39:00,VALID,919.032,VALID,0,VALID,98.1895,VALID,0.0169808,VALID,19.1452,VALID,252,VALID,0.24673,
2004-08-08, 01:40:00,VALID,919.025,VALID,0,VALID,98.1297,VALID,0,VALID,19.0543,VALID,252,VALID,0.101199,
2004-08-08, 01:41:00,VALID,919.024,VALID,0,VALID,98.3408,VALID,0.0169808,VALID,18.9922,VALID,252,VALID,0,
2004-08-08, 01:42:00,VALID,919.031,VALID,0,VALID,98.5176,VALID,0,VALID,18.9838,VALID,252,VALID,0,
2004-08-08, 01:43:00,VALID,919.031,VALID,0,VALID,98.6155,VALID,0,VALID,18.9512,VALID,252,VALID,0,
2004-08-08, 01:44:00,VALID,919.012,VALID,0,VALID,98.1984,VALID,-0.0169808,VALID,18.8671,VALID,252,VALID,0,
2004-08-08, 01:45:00,VALID,918.99,VALID,0,VALID,97.9911,VALID,0,VALID,18.7635,VALID,252,VALID,0,
2004-08-08, 01:46:00,VALID,918.976,VALID,0,VALID,97.7508,VALID,0,VALID,18.6771,VALID,252,VALID,0.229759,
2004-08-08, 01:47:00,VALID,918.958,VALID,0,VALID,97.8958,VALID,0,VALID,18.6093,VALID,252,VALID,0.0525073,
2004-08-08, 01:48:00,VALID,918.948,VALID,0,VALID,98.1145,VALID,0,VALID,18.5865,VALID,252,VALID,0,
2004-08-08, 01:49:00,VALID,918.934,VALID,0,VALID,98.6142,VALID,-0.0339617,VALID,18.583,VALID,252,VALID,0,
2004-08-08, 01:50:00,VALID,918.922,VALID,0,VALID,99.4268,VALID,-0.0339617,VALID,18.6639,VALID,252,VALID,0.0744048,
2004-08-08, 01:51:00,VALID,918.9,VALID,0,VALID,99.8082,VALID,0,VALID,18.7578,VALID,252,VALID,0.106055,
2004-08-08, 01:52:00,VALID,918.895,VALID,0,VALID,99.9847,VALID,0,VALID,18.8316,VALID,252,VALID,0.118963,
2004-08-08, 01:53:00,VALID,918.89,VALID,0,VALID,99.9807,VALID,0,VALID,18.8839,VALID,252,VALID,0.145313,
2004-08-08, 01:54:00,VALID,918.893,VALID,0,VALID,99.9074,VALID,-0.0169808,VALID,18.8807,VALID,252,VALID,0.0322266,
2004-08-08, 01:55:00,VALID,918.899,VALID,0,VALID,99.9303,VALID,0.0169808,VALID,18.8775,VALID,252,VALID,0.182478,
2004-08-08, 01:56:00,VALID,918.904,VALID,0,VALID,99.999,VALID,0.0169808,VALID,18.9095,VALID,252,VALID,0.0455452,
2004-08-08, 01:57:00,VALID,918.914,VALID,0,VALID,100,VALID,-0.0169808,VALID,18.939,VALID,252,VALID,0,
2004-08-08, 01:58:00,VALID,918.912,VALID,0,VALID,100,VALID,-0.0169808,VALID,18.943,VALID,252,VALID,0,
2004-08-08, 01:59:00,VALID,918.898,VALID,0,VALID,99.9977,VALID,-0.0339617,VALID,18.9197,VALID,252,VALID,0,
2004-08-08, 02:00:00,VALID,918.899,VALID,0,VALID,100,VALID,0,VALID,18.8906,VALID,252,VALID,0.0181108,
2004-08-08, 02:01:00,VALID,918.885,VALID,0,VALID,100,VALID,0,VALID,18.8871,VALID,252,VALID,0.272905,
2004-08-08, 02:02:00,VALID,918.882,VALID,0,VALID,99.9868,VALID,-0.0169808,VALID,18.8678,VALID,252,VALID,0.263393,
2004-08-08, 02:03:00,VALID,918.848,VALID,0,VALID,99.9791,VALID,-0.0339617,VALID,18.8427,VALID,252,VALID,0.151867,
2004-08-08, 02:04:00,VALID,918.814,VALID,0,VALID,99.9021,VALID,-0.0169808,VALID,18.8005,VALID,252,VALID,0,
2004-08-08, 02:05:00,VALID,918.776,VALID,0,VALID,99.044,VALID,-0.0339617,VALID,18.5971,VALID,252,VALID,0.297991,
2004-08-08, 02:06:00,VALID,918.77,VALID,0,VALID,98.777,VALID,-0.0169808,VALID,18.3967,VALID,252,VALID,0.427194,
2004-08-08, 02:07:00,VALID,918.766,VALID,0,VALID,99.1127,VALID,0,VALID,18.3225,VALID,253,VALID,0.478659,
2004-08-08, 02:08:00,VALID,918.77,VALID,0,VALID,99.3441,VALID,-0.0169808,VALID,18.2902,VALID,254,VALID,0.35766,
2004-08-08, 02:09:00,VALID,918.792,VALID,0,VALID,99.4751,VALID,0.0169808,VALID,18.2418,VALID,254,VALID,0.18099,
2004-08-08, 02:10:00,VALID,918.8,VALID,0,VALID,99.7714,VALID,0,VALID,18.2485,VALID,254,VALID,0.128049,
2004-08-08, 02:11:00,VALID,918.797,VALID,0,VALID,99.9664,VALID,0.0169808,VALID,18.2709,VALID,254,VALID,0.159896,
2004-08-08, 02:12:00,VALID,918.784,VALID,0,VALID,100,VALID,-0.0339617,VALID,18.3165,VALID,254,VALID,0.156783,
2004-08-08, 02:13:00,VALID,918.773,VALID,0,VALID,100,VALID,0.0169808,VALID,18.3195,VALID,254,VALID,0.2742,
2004-08-08, 02:14:00,VALID,918.744,VALID,0,VALID,100,VALID,0,VALID,18.4362,VALID,254,VALID,0.328887,
2004-08-08, 02:15:00,VALID,918.715,VALID,0,VALID,100,VALID,0,VALID,18.5683,VALID,254,VALID,0.281068,
2004-08-08, 02:16:00,VALID,918.707,VALID,0,VALID,100,VALID,-0.0169808,VALID,18.607,VALID,254,VALID,0,
2004-08-08, 02:17:00,VALID,918.707,VALID,0,VALID,100,VALID,0,VALID,18.6589,VALID,254,VALID,0.099564,
2004-08-08, 02:18:00,VALID,918.709,VALID,0,VALID,100,VALID,-0.0339617,VALID,18.6907,VALID,245,VALID,0.390244,
2004-08-08, 02:19:00,VALID,918.714,VALID,0,VALID,100,VALID,0,VALID,18.7004,VALID,235,VALID,0.388579,
2004-08-08, 02:20:00,VALID,918.722,VALID,0,VALID,100,VALID,0,VALID,18.6939,VALID,235,VALID,0.0288881,
2004-08-08, 02:21:00,VALID,918.733,VALID,0,VALID,100,VALID,0,VALID,18.7205,VALID,235,VALID,0.0386905,
2004-08-08, 02:22:00,VALID,918.74,VALID,0,VALID,100,VALID,-0.0169808,VALID,18.7207,VALID,235,VALID,0,
2004-08-08, 02:23:00,VALID,918.743,VALID,0,VALID,100,VALID,0,VALID,18.7138,VALID,235,VALID,0,
2004-08-08, 02:24:00,VALID,918.758,VALID,0,VALID,100,VALID,0,VALID,18.7101,VALID,235,VALID,0,
2004-08-08, 02:25:00,VALID,918.778,VALID,0,VALID,100,VALID,0,VALID,18.7396,VALID,235,VALID,0,
2004-08-08, 02:26:00,VALID,918.784,VALID,0,VALID,100,VALID,0,VALID,18.7421,VALID,235,VALID,0.194586,
2004-08-08, 02:27:00,VALID,918.782,VALID,0,VALID,100,VALID,-0.0169808,VALID,18.7424,VALID,235,VALID,0.153888,
2004-08-08, 02:28:00,VALID,918.765,VALID,0,VALID,100,VALID,0,VALID,18.7327,VALID,235,VALID,0.177083,
2004-08-08, 02:29:00,VALID,918.74,VALID,0,VALID,100,VALID,-0.0169808,VALID,18.7106,VALID,235,VALID,0.0332031,
2004-08-08, 02:30:00,VALID,918.721,VALID,0,VALID,100,VALID,-0.0509425,VALID,18.7145,VALID,235,VALID,0.0589334,
2004-08-08, 02:31:00,VALID,918.699,VALID,0,VALID,100,VALID,0,VALID,18.6974,VALID,235,VALID,0.0300071,
2004-08-08, 02:32:00,VALID,918.681,VALID,0,VALID,100,VALID,0,VALID,18.688,VALID,235,VALID,0,
2004-08-08, 02:33:00,VALID,918.671,VALID,0,VALID,100,VALID,0,VALID,18.655,VALID,235,VALID,0,
2004-08-08, 02:34:00,VALID,918.666,VALID,0,VALID,100,VALID,0.0169808,VALID,18.6845,VALID,235,VALID,0,
2004-08-08, 02:35:00,VALID,918.651,VALID,0,VALID,100,VALID,0,VALID,18.7394,VALID,235,VALID,0,
2004-08-08, 02:36:00,VALID,918.625,VALID,0,VALID,100,VALID,-0.0169808,VALID,18.8044,VALID,235,VALID,0,
2004-08-08, 02:37:00,VALID,918.591,VALID,0,VALID,100,VALID,-0.0339617,VALID,18.8357,VALID,235,VALID,0,
2004-08-08, 02:38:00,VALID,918.561,VALID,0,VALID,100,VALID,0,VALID,18.8717,VALID,235,VALID,0,
2004-08-08, 02:39:00,VALID,918.547,VALID,0,VALID,100,VALID,0.0509425,VALID,18.7608,VALID,235,VALID,0,
2004-08-08, 02:40:00,VALID,918.529,VALID,0,VALID,99.9423,VALID,0.0679233,VALID,18.4708,VALID,235,VALID,0.248857,
2004-08-08, 02:41:00,VALID,918.506,VALID,0,VALID,99.9952,VALID,0.0339617,VALID,18.3386,VALID,235,VALID,0.202217,
2004-08-08, 02:42:00,VALID,918.482,VALID,0,VALID,100,VALID,0.0509425,VALID,18.3451,VALID,235,VALID,0.00142045,
2004-08-08, 02:43:00,VALID,918.467,VALID,0,VALID,100,VALID,0.0339617,VALID,18.355,VALID,235,VALID,0.00895579,
2004-08-08, 02:44:00,VALID,918.465,VALID,0,VALID,100,VALID,0.0339617,VALID,18.3806,VALID,235,VALID,0.0909242,
2004-08-08, 02:45:00,VALID,918.472,VALID,0,VALID,100,VALID,0.0849042,VALID,18.3933,VALID,235,VALID,0,
2004-08-08, 02:46:00,VALID,918.475,VALID,0,VALID,100,VALID,0.101885,VALID,18.361,VALID,235,VALID,0,
2004-08-08, 02:47:00,VALID,918.47,VALID,0,VALID,100,VALID,0.0679233,VALID,18.3096,VALID,235,VALID,0,
2004-08-08, 02:48:00,VALID,918.448,VALID,0,VALID,99.9021,VALID,0.0849042,VALID,18.0802,VALID,290,VALID,0.291667,
2004-08-08, 02:49:00,VALID,918.422,VALID,0,VALID,99.84,VALID,0.0339617,VALID,17.9258,VALID,6,VALID,0.502204,
2004-08-08, 02:50:00,VALID,918.408,VALID,0,VALID,99.9374,VALID,0.0339617,VALID,17.8416,VALID,6,VALID,0.614644,
2004-08-08, 02:51:00,VALID,918.401,VALID,0,VALID,99.8489,VALID,0.0169808,VALID,17.7194,VALID,6,VALID,0.493877,
2004-08-08, 02:52:00,VALID,918.402,VALID,0,VALID,100,VALID,0.0849042,VALID,17.6936,VALID,6,VALID,0.22561,
2004-08-08, 02:53:00,VALID,918.393,VALID,0,VALID,100,VALID,0.0679233,VALID,17.7134,VALID,6,VALID,0.0739583,
2004-08-08, 02:54:00,VALID,918.389,VALID,0,VALID,100,VALID,-0.0169808,VALID,17.7302,VALID,6,VALID,0,
2004-08-08, 02:55:00,VALID,918.368,VALID,0,VALID,100,VALID,-0.0339617,VALID,17.7298,VALID,343,VALID,0.15843,
2004-08-08, 02:56:00,VALID,918.359,VALID,0,VALID,100,VALID,-0.0339617,VALID,17.9435,VALID,249,VALID,0.399926,
2004-08-08, 02:57:00,VALID,918.366,VALID,0,VALID,100,VALID,-0.0509425,VALID,18.1563,VALID,248,VALID,0.072311,
2004-08-08, 02:58:00,VALID,918.362,VALID,0,VALID,100,VALID,-0.0339617,VALID,18.2174,VALID,248,VALID,0,
2004-08-08, 02:59:00,VALID,918.364,VALID,0,VALID,100,VALID,-0.0169808,VALID,18.2402,VALID,248,VALID,0,
2004-08-08, 03:00:00,VALID,918.368,VALID,0,VALID,100,VALID,-0.0339617,VALID,18.1916,VALID,248,VALID,0,
2004-08-08, 03:01:00,VALID,918.382,VALID,0,VALID,100,VALID,-0.0339617,VALID,18.0857,VALID,248,VALID,0,
2004-08-08, 03:02:00,VALID,918.389,VALID,0,VALID,100,VALID,-0.0509425,VALID,17.9986,VALID,248,VALID,0.0452724,
2004-08-08, 03:03:00,VALID,918.407,VALID,0,VALID,100,VALID,-0.0509425,VALID,17.9626,VALID,248,VALID,0.00438262,
2004-08-08, 03:04:00,VALID,918.418,VALID,0,VALID,100,VALID,-0.0339617,VALID,18.0147,VALID,249,VALID,0.316502,
2004-08-08, 03:05:00,VALID,918.418,VALID,0,VALID,100,VALID,-0.0169808,VALID,18.2598,VALID,258,VALID,0.685369,
2004-08-08, 03:06:00,VALID,918.431,VALID,0,VALID,100,VALID,-0.0509425,VALID,18.3663,VALID,258,VALID,0.435454,
2004-08-08, 03:07:00,VALID,918.447,VALID,0,VALID,100,VALID,0,VALID,18.3988,VALID,258,VALID,0.386719,
2004-08-08, 03:08:00,VALID,918.452,VALID,0,VALID,100,VALID,-0.0169808,VALID,18.3785,VALID,258,VALID,0.224144,
2004-08-08, 03:09:00,VALID,918.452,VALID,0,VALID,100,VALID,0.0509425,VALID,18.394,VALID,258,VALID,0.0358574,
2004-08-08, 03:10:00,VALID,918.455,VALID,0,VALID,100,VALID,0.0509425,VALID,18.3615,VALID,258,VALID,0,
2004-08-08, 03:11:00,VALID,918.453,VALID,0,VALID,100,VALID,0.0679233,VALID,18.2778,VALID,258,VALID,0,
2004-08-08, 03:12:00,VALID,918.452,VALID,0,VALID,100,VALID,0.0679233,VALID,18.2162,VALID,258,VALID,0.0208333,
2004-08-08, 03:13:00,VALID,918.469,VALID,0,VALID,100,VALID,0.0849042,VALID,18.1035,VALID,258,VALID,0.20846,
2004-08-08, 03:14:00,VALID,918.48,VALID,0,VALID,100,VALID,0.0509425,VALID,17.9288,VALID,258,VALID,0,
2004-08-08, 03:15:00,VALID,918.489,VALID,0,VALID,100,VALID,0.0339617,VALID,17.8264,VALID,258,VALID,0,
2004-08-08, 03:16:00,VALID,918.491,VALID,0,VALID,100,VALID,0.0509425,VALID,17.7681,VALID,258,VALID,0,
2004-08-08, 03:17:00,VALID,918.479,VALID,0,VALID,100,VALID,0.0169808,VALID,17.704,VALID,258,VALID,0.187109,
2004-08-08, 03:18:00,VALID,918.44,VALID,0,VALID,100,VALID,0.0509425,VALID,17.5837,VALID,173,VALID,0.666466,
2004-08-08, 03:19:00,VALID,918.407,VALID,0,VALID,100,VALID,0.0509425,VALID,17.488,VALID,134,VALID,1.08703,
2004-08-08, 03:20:00,VALID,918.377,VALID,0,VALID,100,VALID,0.0679233,VALID,17.497,VALID,118,VALID,1.12555,
2004-08-08, 03:21:00,VALID,918.374,VALID,0,VALID,100,VALID,0.0509425,VALID,17.5549,VALID,129,VALID,1.28052,
2004-08-08, 03:22:00,VALID,918.387,VALID,0,VALID,100,VALID,0,VALID,17.6235,VALID,131,VALID,0.980208,
2004-08-08, 03:23:00,VALID,918.411,VALID,0,VALID,100,VALID,-0.0509425,VALID,17.6435,VALID,136,VALID,1.13624,
2004-08-08, 03:24:00,VALID,918.438,VALID,0,VALID,100,VALID,0,VALID,17.7231,VALID,137,VALID,0.681076,
2004-08-08, 03:25:00,VALID,918.45,VALID,0,VALID,100,VALID,0,VALID,17.7492,VALID,117,VALID,0.577604,
2004-08-08, 03:26:00,VALID,918.455,VALID,0,VALID,100,VALID,0.0169808,VALID,17.5073,VALID,59,VALID,0.450694,
2004-08-08, 03:27:00,VALID,918.45,VALID,0,VALID,100,VALID,0.0169808,VALID,17.3333,VALID,42,VALID,0.234561,
2004-08-08, 03:28:00,VALID,918.436,VALID,0,VALID,100,VALID,0.0169808,VALID,17.3589,VALID,42,VALID,0.232525,
2004-08-08, 03:29:00,VALID,918.427,VALID,0,VALID,100,VALID,0.0509425,VALID,17.3972,VALID,53,VALID,0.552641,
2004-08-08, 03:30:00,VALID,918.424,VALID,0,VALID,100,VALID,0.0339617,VALID,17.4329,VALID,60,VALID,0.396205,
2004-08-08, 03:31:00,VALID,918.439,VALID,0,VALID,100,VALID,0.0339617,VALID,17.4458,VALID,63,VALID,0.42508,
2004-08-08, 03:32:00,VALID,918.446,VALID,0,VALID,100,VALID,0,VALID,17.4327,VALID,64,VALID,0.225419,
2004-08-08, 03:33:00,VALID,918.471,VALID,0,VALID,100,VALID,0.0169808,VALID,17.4234,VALID,358,VALID,0.389757,
2004-08-08, 03:34:00,VALID,918.486,VALID,0,VALID,100,VALID,0,VALID,17.449,VALID,309,VALID,0.294837,
2004-08-08, 03:35:00,VALID,918.486,VALID,0,VALID,100,VALID,0.0339617,VALID,17.5235,VALID,309,VALID,0.0756392,
2004-08-08, 03:36:00,VALID,918.501,VALID,0,VALID,100,VALID,0.0169808,VALID,17.5396,VALID,309,VALID,0,
2004-08-08, 03:37:00,VALID,918.496,VALID,0,VALID,100,VALID,0.0509425,VALID,17.5813,VALID,309,VALID,0.102121,
2004-08-08, 03:38:00,VALID,918.486,VALID,0,VALID,100,VALID,-0.0169808,VALID,17.6014,VALID,309,VALID,0.242374,
2004-08-08, 03:39:00,VALID,918.464,VALID,0,VALID,100,VALID,-0.0679233,VALID,17.6567,VALID,309,VALID,0.276414,